Simultaneous Nadir Overpasses (SNOs) Predictions

Prediction of SNOs between AQUA and METOP-B Satellite Orbit:

Table of predicted SNOs for the next 14.0 days since TLE Epoch: 12/12/2014
Index Date (AQUA) Time (AQUA) Lat,Lon (AQUA) SZA (AQUA ) Date (METOP-B) Time (METOP-B) Lat,Lon (METOP-B) SZA (METOP-B ) Distance(km) Time Diff (sec)
1 12/15/2014 01:05:41 -73.10, -20.71 83.73 12/15/2014 01:04:34 -73.08, -23.22 83.69 81.46 67
2 12/15/2014 01:55:21 73.75, 145.57 96.95 12/15/2014 01:55:00 73.74, 145.62 96.95 1.85 21
3 12/15/2014 02:44:48 -73.83, -46.96 82.97 12/15/2014 02:45:41 -73.80, -46.91 83.00 2.79 53
4 12/17/2014 20:40:02 -73.39, 45.15 83.31 12/17/2014 20:38:52 -73.32, 43.72 83.34 46.15 70
5 12/17/2014 21:29:36 73.73,-147.94 97.05 12/17/2014 21:29:23 73.73,-147.99 97.06 1.74 13
6 12/17/2014 22:19:03 -73.80, 19.54 82.88 12/17/2014 22:20:04 -73.80, 19.48 82.88 1.95 61
7 12/20/2014 16:14:21 -73.66, 111.00 82.95 12/20/2014 16:13:08 -73.60, 110.78 83.00 9.91 73
8 12/20/2014 17:03:50 73.75, -81.54 97.14 12/20/2014 17:03:44 73.76, -81.50 97.16 2.20 6
9 12/20/2014 17:53:17 -73.82, 85.95 82.79 12/20/2014 17:54:25 -73.83, 85.98 82.78 1.58 68
10 12/23/2014 11:48:35 -73.67, 177.43 82.94 12/23/2014 11:47:29 -73.68, 177.37 82.92 1.86 66
11 12/23/2014 12:38:04 73.76, -15.13 97.16 12/23/2014 12:38:07 73.74, -15.15 97.14 2.87 3
12 12/23/2014 13:27:33 -73.93, 152.14 82.67 12/23/2014 13:28:45 -73.95, 152.69 82.66 17.09 72
13 12/26/2014 07:22:48 -73.68,-116.13 82.99 12/26/2014 07:21:51 -73.69,-116.17 82.96 2.13 57
14 12/26/2014 08:12:17 73.77, 51.30 97.12 12/26/2014 08:12:29 73.76, 51.31 97.10 2.01 12




NCC Satellite Simultaneous Nadir Overpasses (SNOs) Prediction Service
